Overview Statistics Trail Chart Weather Telemetry Raw packets
 

This is the latest recevied weather packets stored in our database for station/object PA3DZX-13. If no packets are shown the sender has not sent any weather packets the latest 10 day(s).

<< 7 8 9 10 11 12 13 >>
Time Temp. Humidity Pressure Rain* Wind** Luminosity Snow
1788422956 17.78° C 77% 1015.1 hPa 0 mm - - -
1788422055 17.78° C 78% 1015.2 hPa 0 mm - - -
1788421155 17.78° C 76% 1015.3 hPa 0 mm - - -
1788420255 17.78° C 75% 1015.1 hPa 0 mm - - -
1788419353 17.78° C 75% 1015.1 hPa 0 mm - - -
1788418452 17.78° C 75% 1015.4 hPa 0 mm - - -
1788417552 16.67° C 76% 1015.6 hPa 0 mm - - -
1788416651 16.67° C 75% 1015.6 hPa 0 mm - - -
1788415750 16.67° C 77% 1015.6 hPa 0 mm - - -
1788414849 16.67° C 77% 1015.6 hPa 0 mm - - -
1788413950 16.67° C 79% 1015.6 hPa 0 mm - - -
1788413049 15.56° C 83% 1015.4 hPa 0 mm - - -
1788412149 15.56° C 82% 1015.5 hPa 0 mm - - -
1788411249 16.67° C 78% 1015.6 hPa 0 mm - - -
1788410348 16.67° C 79% 1015.5 hPa 0 mm - - -
1788409448 16.67° C 80% 1015.6 hPa 0 mm - - -
1788408547 15.56° C 80% 1015.9 hPa 0 mm - - -
1788407647 15.56° C 80% 1015.9 hPa 0 mm - - -
1788406747 15.56° C 81% 1016.4 hPa 0 mm - - -
1788405847 15.56° C 82% 1016.4 hPa 0 mm - - -
1788404947 15.56° C 81% 1016.4 hPa 0 mm - - -
1788404047 15.56° C 82% 1016.6 hPa 0 mm - - -
1788403147 15.56° C 86% 1016.8 hPa 0 mm - - -
1788402247 15.56° C 86% 1016.8 hPa 0 mm - - -
1788401347 15.56° C 83% 1017 hPa 0 mm - - -

* Rain latest hour (hover to see other rain measurements)
** Current wind speed in m/s (hover to see current wind gust speed)